Dewpoint
-7 -5 -4 -5 -8 -8 -7 -7 -6 -7 -4 -3 -3 -1 3 3 10 11 11 12 13 13 13 14 14 14 14 15 15 15 14 14 14 11 11 11 11 13 15 14 15 15 16 14
-6 -4 -6 -7 -7 -8 -9 -9 -7 -8 -3 -3 -3 -2 -2 4 4 11 12 13 13 14 14 14 15 15 15 16 16 15 15 14 12 11 11 11 12 14 15 16 16 15 14 14
-6 -4 -7 -7 -7 -9 -11 -9 -8 -7 -5 -5 -2 0 -1 -2 2 11 12 13 13 14 14 15 15 15 15 15 16 17 15 14 13 12 9 11 13 14 14 16 15 14 13 14
-7 -9 -6 -6 -6 -9 -8 -8 -5 -7 -5 -3 -4 1 1 2 3 3 13 14 14 14 14 15 16 16 16 15 17 17 16 14 13 13 11 13 14 15 15 15 15 14 13 15
-3 -6 -6 -4 -7 -10 -8 -6 -2 -1 -3 -1 -1 1 1 2 5 7 6 13 13 14 14 15 15 15 15 16 17 17 16 15 14 14 14 14 15 15 15 14 13 14 13 15
-5 -6 -6 -6 -7 -9 -8 -6 -2 -2 -3 0 5 4 6 3 5 9 5 4 13 14 15 15 15 15 16 16 16 17 17 17 15 15 15 16 15 15 15 12 14 14 14 15
0 -3 -5 -7 -5 -7 -7 -4 2 4 4 6 4 3 6 2 4 6 7 11 13 15 15 15 14 15 16 16 17 17 16 16 16 15 14 11 11 13 13 13 13 15 13 11
2 2 -4 -6 -6 -3 -3 -3 2 4 4 7 5 5 5 2 2 2 4 9 13 14 14 14 14 14 16 15 16 16 15 16 16 15 13 12 14 14 14 13 14 13 11 11
1 1 -3 -7 -8 -6 -4 0 -3 0 1 1 5 5 5 5 4 4 4 8 12 13 13 14 14 14 14 15 15 16 14 15 16 15 12 12 15 15 12 14 13 10 11 14
-2 3 -5 -7 -7 -6 -5 -4 -2 2 2 4 2 7 8 7 8 8 8 8 12 13 13 14 14 15 14 15 15 16 15 15 16 15 13 14 14 13 14 13 13 9 12 14
-4 1 1 -3 -3 -2 -3 -3 -3 -3 2 3 4 10 8 9 9 9 11 11 10 11 12 13 14 14 15 14 15 15 15 15 16 14 15 15 15 14 14 13 13 10 14 13
-3 -0 2 1 -3 -4 -3 -2 2 3 1 4 3 8 8 9 9 11 14 12 9 11 12 14 15 15 14 14 15 15 15 14 15 15 15 15 15 14 14 13 15 15 13 12
1 1 2 1 -0 -3 -2 -4 -4 1 6 6 8 11 8 9 11 10 9 6 11 11 11 14 14 14 14 15 13 7 14 15 15 15 14 15 15 13 12 13 13 14 12 10
-1 3 4 2 3 1 1 -0 -1 1 3 3 3 7 12 10 9 9 11 9 11 13 13 14 14 14 14 15 9 6 11 15 15 14 15 16 14 14 12 12 13 13 11 11
2 4 4 2 -0 -3 -2 0 1 0 2 3 -0 11 11 10 10 9 3 0 3 13 14 14 14 14 15 14 12 8 9 15 15 14 15 15 14 14 12 12 10 14 10 8
0 4 2 4 2 -1 -0 -1 1 0 -1 -1 9 11 10 9 6 6 5 4 6 10 15 14 14 15 15 15 11 12 14 15 14 14 15 15 15 14 14 12 10 12 10 7
5 7 5 6 4 4 5 2 3 2 2 -0 -2 9 10 12 10 9 7 6 8 13 15 15 15 15 15 15 11 13 15 14 14 14 14 14 15 14 14 13 11 12 11 10
8 10 10 9 8 10 4 2 1 3 4 4 10 11 10 10 10 12 15 14 12 13 15 15 16 16 15 10 13 15 14 14 14 15 15 15 15 14 14 14 14 11 12 11
3 6 8 8 8 6 4 3 3 4 6 10 12 10 11 13 8 9 14 15 14 12 15 15 15 15 15 14 14 15 14 14 14 14 15 15 15 15 15 15 14 13 13 12
-1 6 6 6 9 9 5 3 3 4 12 14 11 12 13 9 11 11 9 15 16 15 15 16 16 16 15 16 15 15 15 10 15 13 13 13 13 15 14 15 14 14 13 12
1 3 7 7 7 5 3 4 3 7 11 11 12 11 10 10 8 5 15 16 16 16 15 15 14 15 15 15 15 15 13 14 13 13 13 13 13 15 16 15 15 14 14 13
4 5 3 6 7 7 5 7 13 9 4 14 14 14 14 14 13 14 14 14 16 16 16 16 16 15 15 15 15 15 15 14 14 13 13 12 12 14 15 14 14 14 13 12
6 5 4 2 5 13 13 14 14 11 14 13 13 13 13 12 13 14 14 15 14 15 15 15 14 14 14 15 15 14 13 13 12 11 10 9 9 14 13 13 13 13 12 12
7 8 7 6 10 13 14 14 14 14 14 13 13 13 13 14 14 14 14 13 13 13 13 13 13 13 13 13 13 12 12 11 11 9 9 9 11 12 12 12 12 12 12 12
7 10 12 11 12 12 13 14 14 13 13 13 14 14 13 14 14 13 13 13 13 13 13 13 12 11 11 11 11 11 11 9 9 9 10 11 11 11 11 12 12 11 11 11
8 11 12 13 12 12 12 11 13 13 13 13 13 14 14 13 12 12 13 13 13 12 12 12 11 10 10 10 10 9 9 10 10 10 11 11 11 11 10 11 10 10 10 10
Wind_Speed
14 2 7 14 11 4 6 7 8 5 7 6 2 5 8 20 24 23 26 25 28 24 20 18 14 10 12 16 17 16 13 11 14 10 15 15 4 10 7 15 13 14 19 17
6 9 12 9 3 6 7 7 8 8 7 6 3 9 11 9 15 29 30 29 26 23 23 21 19 15 12 11 11 14 9 5 11 14 8 5 13 12 8 12 13 13 14 16
9 10 11 2 4 6 5 5 7 6 6 3 4 7 9 7 13 28 32 33 28 27 26 23 21 17 16 15 11 9 5 10 14 18 15 14 11 2 4 8 10 11 13 12
8 14 5 2 4 2 6 9 7 3 6 3 2 6 7 6 8 9 26 30 29 29 27 27 23 18 12 9 12 9 3 11 8 10 12 6 2 3 2 3 5 10 11 13
10 8 5 6 5 6 10 4 6 6 6 4 10 4 7 7 5 5 8 27 31 30 32 27 21 17 13 14 12 9 8 10 12 10 9 5 2 5 6 4 4 8 8 10
10 14 2 3 7 8 5 7 6 5 1 3 5 2 4 4 1 1 9 18 31 28 28 23 20 18 15 15 10 11 11 12 13 11 10 11 12 7 4 2 3 1 8 14
9 8 4 4 7 4 4 3 3 4 3 5 7 3 9 14 8 10 16 25 31 31 29 27 25 20 18 18 15 11 14 15 16 12 10 8 8 5 1 4 3 7 11 11
6 7 10 8 7 5 7 9 5 3 2 5 3 4 2 10 16 11 13 27 33 32 28 26 23 18 22 21 17 13 12 14 16 12 10 12 7 4 2 2 3 8 9 10
4 9 12 10 6 5 5 4 10 4 3 4 4 2 4 5 5 9 9 24 29 30 26 23 19 15 18 21 18 15 13 12 12 8 8 9 9 6 3 3 7 8 9 12
8 6 7 11 9 6 7 4 5 4 1 5 6 1 3 3 1 6 11 16 25 27 28 24 20 16 16 19 18 15 11 11 14 7 8 8 5 6 6 6 7 7 11 11
9 6 10 4 3 6 3 4 3 3 4 3 3 3 6 8 6 11 31 17 21 25 27 25 23 17 14 16 20 13 9 12 14 8 12 8 4 6 7 6 6 9 11 11
10 5 3 9 8 11 9 8 7 5 7 4 4 3 3 9 16 24 35 26 20 18 23 25 22 16 13 12 13 5 10 10 8 13 12 9 4 4 5 3 9 10 11 12
3 3 1 9 9 7 1 6 1 2 2 4 3 5 2 6 28 34 30 17 34 12 19 24 20 18 14 20 13 19 16 15 12 11 10 9 4 3 3 6 9 8 10 11
4 4 4 6 6 3 4 7 4 5 2 5 5 5 4 1 9 17 40 33 18 8 20 22 20 18 20 21 10 16 12 17 13 9 14 9 3 1 4 6 5 8 9 7
4 2 5 7 9 9 11 8 5 3 6 3 8 7 9 1 1 7 5 13 13 10 20 23 22 20 23 23 8 11 13 18 10 12 11 8 4 1 3 4 4 8 7 7
3 3 5 5 7 12 15 16 9 9 10 11 13 2 6 4 14 10 13 19 10 21 19 22 23 23 21 18 12 13 17 19 14 13 13 8 6 2 2 2 2 5 6 6
3 2 2 6 7 9 8 5 3 5 4 9 6 7 8 6 13 16 16 8 16 18 22 22 22 22 19 17 18 16 21 19 12 12 13 10 8 5 3 3 2 4 6 4
3 3 2 2 5 4 7 2 3 2 5 11 19 16 11 7 6 9 16 37 25 26 23 22 24 18 12 19 20 12 21 12 9 11 11 13 10 9 11 6 2 3 6 4
2 3 3 2 3 8 11 2 3 3 7 15 21 16 17 22 27 17 7 11 17 21 23 25 22 14 14 17 22 20 21 12 12 15 15 12 12 13 13 11 6 5 5 5
2 4 4 2 2 3 5 2 4 2 5 29 14 19 29 31 4 5 8 4 18 17 19 24 19 20 21 19 19 19 14 17 23 16 13 13 12 13 14 9 8 5 6 7
4 3 6 4 5 7 6 4 5 2 6 22 10 18 16 3 7 21 9 6 9 14 16 17 19 22 20 19 16 13 15 19 12 11 11 11 12 10 15 12 11 7 7 8
8 6 6 3 6 10 7 8 2 5 7 24 28 24 16 17 21 16 9 8 6 7 7 10 10 13 11 10 13 13 10 7 6 8 5 4 4 6 10 11 10 9 8 8
4 7 6 9 7 4 9 10 9 21 17 20 24 21 23 19 17 16 15 12 9 7 5 6 6 5 7 9 9 9 8 5 6 5 2 1 5 8 9 9 9 11 8 11
8 16 3 5 6 5 20 11 14 17 12 9 19 26 19 24 22 18 14 10 8 6 7 5 5 5 7 5 4 4 5 5 3 3 3 5 5 8 9 9 8 8 9 11
3 8 7 3 14 12 21 17 15 10 10 6 16 12 17 20 16 14 15 14 12 9 6 5 5 6 6 6 5 4 3 3 4 5 6 6 7 7 7 8 9 10 9 7
2 1 2 3 9 6 6 3 14 6 5 5 8 16 14 7 7 12 15 14 12 12 8 6 4 5 4 3 3 4 4 5 6 6 8 9 9 9 8 7 7 6 5 4
Wind_Direction
251 158 240 240 238 292 11 341 332 330 118 83 354 292 203 183 158 158 162 162 169 172 180 180 171 182 194 205 218 245 280 197 249 337 262 237 185 252 245 245 262 266 276 287
291 227 249 273 67 28 346 324 306 308 132 114 210 283 282 188 174 164 163 170 174 174 180 184 185 188 170 190 227 251 270 284 124 60 136 234 224 213 257 247 248 283 284 301
222 251 227 5 357 351 310 273 291 272 354 355 189 276 261 246 154 161 172 176 175 177 183 179 176 184 203 221 238 252 272 127 145 115 119 168 203 232 279 246 264 289 316 329
243 256 207 275 280 252 279 277 315 323 21 282 25 283 274 217 165 142 163 167 178 181 184 176 177 183 189 208 229 251 263 136 149 143 141 164 77 39 209 256 305 312 329 318
251 261 283 174 245 219 245 345 5 342 308 10 310 33 296 41 42 110 103 172 180 184 181 175 184 185 190 200 212 212 163 142 151 161 149 144 338 215 188 260 281 337 335 308
252 291 239 224 232 253 353 357 341 303 229 355 283 70 0 309 249 246 198 223 167 171 172 178 175 180 182 196 203 167 163 155 151 160 170 183 188 191 216 276 18 294 306 297
297 267 210 222 301 222 160 21 319 331 45 217 265 28 187 211 204 184 190 149 155 160 165 168 172 176 179 183 179 184 175 165 162 172 165 160 141 146 222 355 264 304 305 326
223 283 217 197 198 213 187 169 172 271 153 236 355 240 303 101 57 61 120 148 156 157 166 173 178 181 176 182 187 198 180 161 156 158 154 147 135 148 286 297 324 334 340 8
241 249 277 180 157 188 270 191 219 228 289 38 214 195 259 18 82 101 159 159 157 160 169 176 182 188 179 186 186 181 164 160 151 164 155 153 166 187 128 76 3 5 32 41
253 318 315 169 163 214 170 242 12 344 274 282 301 190 210 39 76 330 347 146 155 165 167 176 185 185 181 186 182 182 171 156 168 158 148 131 121 90 107 50 15 24 50 46
212 179 286 73 119 219 270 261 266 154 141 170 286 260 221 195 162 45 19 311 161 169 175 176 177 180 176 184 182 189 188 175 166 155 137 137 131 79 87 42 16 60 64 52
203 164 232 228 219 202 209 215 183 131 275 221 176 259 3 99 74 94 91 295 319 167 168 163 163 165 175 155 160 176 213 179 162 151 142 157 163 65 110 62 74 68 67 59
309 169 336 329 340 331 303 228 260 187 121 248 131 240 230 75 101 102 112 264 309 211 159 152 146 155 164 159 130 332 181 168 173 169 165 164 150 62 103 77 78 81 71 60
52 61 142 200 225 331 306 333 340 77 3 263 238 148 353 19 88 111 129 218 273 164 165 154 150 166 176 167 115 64 149 164 183 167 154 175 160 23 104 73 69 78 67 61
69 62 40 331 335 329 318 264 281 334 245 193 269 125 216 99 100 60 246 282 252 301 165 152 159 176 170 167 148 130 129 161 164 140 170 182 201 212 100 59 82 99 82 73
11 318 13 314 318 305 304 306 211 217 223 249 97 53 72 110 95 135 245 244 237 283 171 164 174 183 188 190 183 161 150 160 161 155 181 199 202 243 357 28 58 100 99 70
53 50 90 275 307 314 317 285 61 240 323 350 272 145 155 195 192 187 185 221 253 255 178 182 189 199 205 202 176 174 163 170 162 175 188 210 215 227 257 267 261 130 120 87
72 52 8 266 8 282 246 119 192 2 356 35 97 108 140 117 95 41 332 257 228 204 197 202 196 207 203 187 180 180 168 171 165 184 203 225 214 234 250 224 277 189 154 150
88 87 5 82 282 281 309 329 289 109 20 46 118 123 117 79 63 338 58 87 185 189 190 189 198 198 189 189 186 186 186 155 176 190 188 197 238 235 244 229 240 256 191 169
294 141 132 10 328 277 284 223 252 9 78 70 102 151 141 143 122 242 151 99 126 146 157 173 178 184 200 207 204 197 169 188 206 205 211 207 226 224 244 227 259 251 200 202
208 239 186 201 224 264 260 208 11 131 196 134 164 212 170 228 207 172 159 137 139 147 161 179 194 200 195 201 207 187 190 190 203 217 226 235 229 214 222 247 219 228 220 216
179 175 210 212 216 263 287 334 150 205 154 134 144 176 161 138 133 145 142 130 178 172 186 186 181 178 183 192 215 221 224 217 254 267 261 245 215 199 201 225 216 210 218 227
206 187 196 174 213 128 81 102 74 139 113 123 135 147 149 142 133 141 144 157 162 172 193 227 236 226 218 215 219 231 244 255 259 259 249 211 177 177 190 215 234 212 212 244
355 5 133 74 347 93 104 76 74 94 91 112 154 145 142 139 156 154 154 156 140 157 194 205 211 196 174 173 186 223 243 252 239 198 169 161 157 166 180 195 211 222 218 218
347 348 333 40 30 45 59 73 41 61 87 99 112 133 139 149 153 149 149 156 164 168 179 181 173 161 153 155 168 180 189 161 152 147 136 139 146 145 168 180 186 194 211 227
72 72 65 47 16 35 63 109 128 118 102 134 122 118 142 144 146 146 152 162 160 171 182 183 202 181 178 171 158 137 132 131 135 135 127 125 122 122 129 138 149 157 163 169
Height
1502 1509 1517 1503 1497 1494 1493 1498 1500 1487 1480 1487 1490 1493 1490 1485 1489 1494 1499 1505 1509 1512 1518 1522 1526 1530 1533 1534 1535 1535 1535 1537 1542 1543 1538 1547 1552 1551 1550 1554 1553 1552 1550 1548
1507 1514 1494 1491 1488 1493 1496 1501 1504 1488 1482 1486 1490 1494 1483 1483 1483 1489 1495 1501 1507 1511 1515 1519 1523 1528 1531 1533 1537 1535 1537 1540 1544 1540 1541 1546 1551 1543 1550 1552 1552 1551 1548 1546
1509 1497 1490 1490 1492 1498 1498 1503 1501 1500 1486 1483 1490 1502 1491 1481 1482 1488 1492 1496 1503 1508 1513 1517 1521 1525 1528 1531 1533 1534 1536 1539 1541 1542 1542 1541 1545 1548 1549 1550 1550 1549 1546 1544
1498 1487 1488 1491 1496 1495 1512 1490 1486 1490 1503 1526 1492 1538 1497 1484 1484 1484 1491 1496 1502 1505 1510 1515 1519 1523 1527 1529 1531 1533 1536 1539 1540 1541 1543 1544 1545 1544 1547 1548 1548 1547 1545 1543
1500 1490 1490 1495 1494 1490 1501 1486 1491 1493 1504 1510 1510 1528 1506 1485 1495 1492 1488 1494 1498 1502 1507 1512 1516 1521 1525 1527 1529 1531 1534 1538 1540 1543 1543 1545 1545 1547 1547 1548 1548 1547 1544 1541
1489 1484 1483 1486 1485 1486 1485 1492 1494 1497 1510 1546 1521 1523 1529 1511 1500 1496 1490 1492 1496 1501 1508 1512 1515 1518 1523 1526 1528 1530 1532 1536 1539 1542 1545 1547 1548 1547 1548 1546 1545 1545 1542 1541
1493 1487 1482 1484 1491 1484 1489 1508 1547 1547 1548 1552 1511 1513 1515 1493 1490 1492 1494 1493 1497 1502 1507 1511 1514 1517 1521 1524 1527 1530 1532 1534 1537 1540 1542 1545 1547 1546 1546 1545 1544 1543 1542 1538
1517 1519 1485 1479 1488 1494 1497 1509 1544 1549 1553 1544 1505 1528 1514 1486 1490 1489 1491 1493 1494 1499 1504 1508 1513 1517 1520 1523 1526 1529 1533 1536 1537 1538 1540 1542 1543 1544 1546 1544 1544 1543 1540 1536
1507 1503 1471 1473 1477 1484 1494 1510 1494 1518 1511 1533 1522 1503 1494 1488 1488 1485 1484 1493 1497 1498 1500 1506 1512 1516 1521 1524 1526 1528 1532 1535 1538 1539 1541 1542 1544 1545 1545 1543 1543 1541 1538 1537
1489 1510 1472 1470 1475 1478 1486 1484 1517 1522 1538 1547 1523 1515 1519 1501 1492 1489 1493 1493 1498 1502 1503 1503 1509 1516 1522 1525 1526 1528 1531 1534 1536 1539 1542 1544 1545 1544 1542 1542 1542 1540 1539 1538
1479 1496 1492 1476 1486 1493 1493 1499 1497 1507 1518 1540 1544 1532 1497 1499 1496 1507 1513 1509 1499 1503 1505 1503 1509 1515 1520 1524 1529 1533 1534 1534 1534 1538 1541 1544 1545 1545 1543 1541 1542 1540 1540 1538
1472 1487 1505 1495 1475 1471 1477 1488 1496 1528 1525 1519 1523 1529 1497 1501 1511 1516 1518 1524 1515 1508 1509 1506 1510 1515 1517 1527 1537 1538 1531 1535 1539 1537 1540 1542 1545 1546 1544 1543 1541 1542 1541 1538
1474 1489 1514 1508 1490 1475 1480 1476 1476 1490 1501 1514 1529 1528 1502 1507 1520 1519 1529 1535 1523 1516 1510 1510 1511 1518 1521 1531 1534 1527 1513 1531 1538 1538 1540 1542 1544 1545 1544 1543 1541 1542 1541 1540
1469 1483 1499 1522 1501 1488 1488 1482 1479 1493 1517 1511 1506 1507 1505 1497 1498 1509 1503 1521 1519 1515 1511 1510 1513 1518 1523 1527 1530 1529 1523 1529 1536 1536 1539 1542 1542 1544 1544 1542 1542 1542 1542 1542
1475 1492 1488 1489 1484 1482 1484 1484 1485 1486 1492 1505 1493 1505 1502 1499 1496 1494 1495 1498 1506 1510 1510 1508 1511 1517 1521 1524 1527 1526 1523 1526 1532 1536 1539 1541 1543 1543 1543 1543 1543 1543 1543 1543
1477 1496 1487 1496 1487 1485 1487 1479 1479 1478 1475 1474 1497 1503 1500 1499 1488 1484 1484 1486 1500 1507 1508 1508 1512 1517 1520 1524 1524 1524 1523 1527 1533 1535 1538 1540 1543 1543 1544 1543 1543 1543 1543 1544
1484 1491 1497 1511 1493 1494 1505 1485 1483 1479 1479 1476 1482 1489 1500 1500 1497 1491 1483 1483 1497 1505 1507 1509 1514 1517 1517 1520 1522 1524 1525 1531 1534 1536 1536 1538 1539 1540 1542 1542 1543 1543 1544 1543
1489 1494 1499 1509 1501 1525 1487 1473 1471 1473 1469 1470 1492 1492 1494 1494 1507 1508 1490 1488 1496 1506 1507 1507 1512 1516 1517 1519 1521 1526 1530 1534 1536 1539 1538 1538 1538 1538 1536 1538 1540 1542 1543 1543
1484 1494 1509 1517 1517 1499 1483 1474 1473 1477 1482 1480 1498 1502 1495 1496 1500 1512 1502 1493 1503 1508 1508 1510 1511 1513 1517 1517 1519 1522 1524 1530 1534 1532 1533 1535 1540 1537 1534 1536 1539 1541 1541 1542
1486 1490 1506 1512 1521 1522 1487 1473 1471 1467 1508 1500 1493 1510 1495 1501 1512 1495 1491 1500 1499 1502 1504 1508 1512 1513 1515 1515 1514 1516 1507 1519 1525 1527 1530 1532 1531 1532 1532 1534 1537 1539 1540 1540
1499 1500 1509 1513 1518 1501 1475 1473 1474 1493 1502 1491 1507 1511 1495 1498 1498 1495 1497 1500 1501 1501 1503 1505 1509 1511 1510 1511 1510 1513 1518 1520 1521 1524 1525 1527 1527 1530 1531 1534 1535 1537 1538 1539
1497 1505 1506 1505 1511 1514 1472 1472 1484 1483 1479 1483 1486 1493 1496 1496 1493 1495 1497 1497 1501 1502 1505 1507 1509 1509 1507 1508 1509 1509 1513 1518 1520 1522 1522 1523 1524 1527 1530 1532 1534 1536 1537 1538
1491 1483 1492 1491 1494 1476 1472 1474 1477 1479 1482 1486 1489 1494 1494 1492 1492 1494 1496 1500 1504 1506 1505 1507 1508 1509 1507 1509 1511 1510 1512 1515 1517 1519 1519 1520 1522 1526 1529 1531 1532 1534 1536 1537
1477 1472 1475 1478 1478 1475 1475 1479 1480 1485 1491 1491 1491 1494 1496 1494 1497 1498 1500 1501 1501 1505 1508 1508 1507 1507 1508 1508 1509 1510 1512 1512 1513 1516 1517 1519 1522 1525 1527 1530 1532 1534 1535 1536
1487 1481 1484 1482 1481 1481 1483 1486 1491 1492 1493 1493 1490 1491 1494 1498 1499 1499 1501 1504 1506 1508 1508 1508 1507 1506 1506 1507 1508 1509 1511 1513 1514 1516 1518 1520 1522 1525 1527 1529 1531 1532 1534 1535
1486 1489 1494 1498 1493 1489 1491 1489 1489 1493 1492 1493 1495 1494 1494 1496 1498 1498 1500 1503 1504 1505 1507 1507 1506 1506 1506 1507 1508 1510 1512 1514 1515 1517 1519 1521 1524 1526 1528 1529 1530 1532 1534 1534